This is the latest recevied weather packets stored in our database for station/object EA1RCC-1. If no packets are shown the sender has not sent any weather packets the latest 10 day(s).
| Time | Temp. | Humidity | Pressure | Rain* | Wind** | Luminosity | Snow |
|---|---|---|---|---|---|---|---|
| 1777534322 | 9.44° C | 26% | 1016 hPa | 0 mm | - | - | - |
| 1777531917 | 11.67° C | 26% | 1016 hPa | 0 mm | - | - | - |
| 1777526372 | 6.11° C | 93% | 1016 hPa | 0 mm | - | - | - |
| 1777520832 | 4.44° C | 93% | 1015 hPa | 0 mm | - | - | - |
| 1777517825 | 7.22° C | 93% | 1015 hPa | 0 mm | - | - | - |
| 1777516622 | 8.33° C | 93% | 1015 hPa | 0 mm | - | - | - |
| 1777511679 | 7.22° C | 93% | 1014 hPa | 0 mm | - | - | - |
| 1777510478 | 8.33° C | 93% | 1014 hPa | 0 mm | - | - | - |
| 1777505666 | 8.33° C | 93% | 1014 hPa | 0 mm | - | - | - |
| 1777504464 | 9.44° C | 93% | 1013 hPa | 0 mm | - | - | - |
| 1777502532 | 5.56° C | 10% | - | 0 mm | - | - | - |
| 1777495184 | 7.78° C | 19% | 1012 hPa | 0 mm | - | - | - |
| 1777493379 | 9.44° C | 19% | 1010 hPa | 0 mm | - | - | - |
| 1777481901 | 16.67° C | 14% | 1008 hPa | 0 mm | - | - | - |
| 1777470947 | 16.11° C | 15% | 1007 hPa | 0 mm | - | - | - |
| 1777470346 | 16.11° C | 14% | 1007 hPa | 0 mm | - | - | - |
| 1777465876 | 17.22° C | 14% | 1006 hPa | 0 mm | - | - | - |
| 1777463471 | 17.22° C | 14% | 1006 hPa | 0 mm | - | - | - |
| 1777458531 | 16.11° C | 14% | 1007 hPa | 0 mm | - | - | - |
| 1777454193 | 15° C | 19% | 1007 hPa | 0 mm | - | - | - |
| 1777450447 | 15° C | 18% | 1007 hPa | 0 mm | - | - | - |
| 1777445376 | 13.89° C | 19% | 1006 hPa | 0.25 mm | - | - | - |
| 1777439702 | 11.67° C | 87% | 1007 hPa | 0 mm | - | - | - |
| 1777439101 | 7.22° C | 94% | 1007 hPa | 0 mm | - | - | - |
| 1777437164 | 8.33° C | 94% | 1007 hPa | 0 mm | - | - | - |
* Rain latest hour (hover to see other rain measurements)
** Current wind speed in m/s (hover to see current wind gust speed)